[[{"header":{"parameterUnit":"m.s-1","parameterCategory":1,"la1":30.2991,"la2":30.254,"lo1":-89.0895,"lo2":-89.0444,"dy":0.0017,"dx":0.0017,"nx":28,"ny":28,"refTime":"2024-09-29T21:00:00:Z","depth":0,"parameterNumber":2,"parameterNumberName":"U-component_of_WINDS"},"data":[0,0,0,0,0,0,0,0,0,0,0,0,0,0,0,0,0,0,0,0,0,0,0,0,0,0,0,0,0,0,0,0,0,0,0,0,0,0,0,0,0,0,0,0,0,0,0,0,0,0,0,0,0,0,0,0,0,0,2.743,2.7432,0,2.7615,2.7617,2.7619,2.7632,2.763,2.7628,2.7626,2.7817,2.7823,2.783,0,0,0,0,0,0,0,0,0,0,0,0,0,2.7091,2.7097,2.743,2.7432,2.7435,2.7614,2.7617,2.7619,2.7633,2.763,2.7628,2.7626,2.7814,2.7823,2.7831,0,0,0,0,0,0,0,0,0,0,0,0,0,2.7253,2.7099,2.743,2.7463,2.7468,2.7614,2.7617,2.762,2.7633,2.763,2.7627,2.7624,2.7812,2.7822,2.7832,2.7958,0,0,2.7864,2.7869,0,0,0,0,0,0,0,0,2.7244,2.7266,2.7456,2.7461,2.7467,2.7597,2.7567,2.7733,2.7634,2.7571,2.7626,2.7623,2.7746,2.7762,2.7803,2.7967,2.7975,2.7865,2.7871,2.7876,2.7879,0,0,0,0,0,0,0,2.7233,2.7258,2.7503,2.7459,2.7465,2.7469,2.7489,2.7599,2.7673,2.7576,2.7577,2.7599,2.7749,2.7793,2.7808,2.7978,2.7865,2.7874,2.788,2.7884,2.8254,2.8257,0,0,0,0,0,0,2.7215,2.7248,2.7497,2.7509,2.7345,2.7478,2.75,2.7558,2.7672,2.7687,2.7601,2.7599,2.7777,2.7796,2.7815,2.7969,2.7876,2.7885,2.7891,2.8251,2.8255,2.8259,0,0,0,0,0,0,2.7208,2.7237,2.749,2.7379,2.7411,2.7487,2.7553,2.7564,2.7608,2.7691,2.7705,2.7633,2.7775,2.78,2.7922,2.7976,2.789,2.79,2.8246,2.8252,2.8257,2.8279,0,0,0,0,0,0,2.7198,2.7234,2.7282,2.738,2.7417,2.7594,2.7556,2.757,2.7626,2.7625,2.7725,2.7738,2.7775,2.7906,2.7932,2.7989,2.7908,2.8242,2.8249,2.8255,2.8274,2.8285,2.8294,0,0,0,0,0,2.7186,2.7281,2.7285,2.7315,2.7479,2.7597,2.7618,2.7658,2.763,2.7679,2.7733,2.7735,2.7966,2.7919,2.7948,2.8009,2.8239,2.8247,2.8255,2.827,2.8283,2.8294,0,0,0,0,0,0,2.7188,2.7295,2.7299,2.743,2.7504,2.7599,2.7662,2.767,2.7754,2.7749,2.7795,2.7818,2.7939,2.7986,2.7931,2.8137,2.8099,2.8114,2.8101,2.8114,2.8124,2.811,2.7917,0,0,0,0,0,2.7204,2.729,2.7379,2.7485,2.7522,2.7586,2.7639,2.7663,2.7742,2.7773,2.7836,2.7913,2.8003,2.8061,2.8149,2.8281,2.8304,2.8338,2.8347,2.8355,2.8367,2.8441,2.8457,2.8285,2.8285,2.8285,0,0,2.7237,2.7306,2.7358,2.7488,2.7548,2.7637,2.7612,2.7707,2.7774,2.7788,2.7907,2.7956,2.8045,2.8173,2.8233,2.8216,2.842,2.8365,2.8371,2.8379,2.8451,2.8467,2.8482,2.829,2.8289,2.8289,0,0,2.7343,2.7404,2.75,2.7561,2.7653,2.7694,2.7717,2.7811,2.7844,2.7964,2.7977,2.8057,2.8211,2.8274,2.8326,2.8458,2.8463,2.8485,2.8536,2.8608,2.8622,2.8634,2.8681,2.8697,2.8496,2.8496,2.8497,0,2.7373,2.7507,2.7548,2.7643,2.77,2.7716,2.7814,2.7871,2.7987,2.8026,2.8006,2.82,2.8262,2.8405,2.8437,2.8479,2.8507,2.8473,2.8617,2.8629,2.8641,2.8687,2.8704,2.8498,2.8498,2.8498,2.8498,0,2.754,2.7632,2.7699,2.781,2.7874,2.797,2.8025,2.8086,2.8105,2.8148,2.8271,2.8345,2.8448,2.8484,2.8504,2.8631,2.8618,2.8607,2.857,2.8659,2.8702,2.872,2.8501,2.8501,2.85,2.85,0,0,2.7652,2.7784,2.7808,2.7859,2.7962,2.8035,2.8132,2.8232,2.8283,2.8363,2.8445,2.8576,2.8566,2.8626,2.8653,2.8716,2.8815,2.8697,2.87,2.8716,2.896,2.8967,2.8987,2.8819,2.8823,2.8826,2.8952,0,2.7769,2.7941,2.7981,2.8129,2.8215,2.8233,2.8318,2.839,2.8434,2.8515,2.8564,2.8655,2.8636,2.8672,2.8735,2.8789,2.8864,2.8781,2.8897,2.8901,2.8873,2.9009,2.9017,2.9133,2.897,2.8973,2.8975,0,2.7929,2.8012,2.8168,2.826,2.8298,2.8373,2.8469,2.8545,2.8629,2.8656,2.8723,2.8743,2.8846,2.8805,2.8946,2.8889,2.8939,2.8973,2.8978,2.899,2.8942,2.9025,2.9171,2.9189,2.9002,2.9,2.8998,0,2.7994,2.8146,2.8259,2.8302,2.8412,2.8465,2.8513,2.8593,2.8651,2.8735,2.8774,2.8868,2.892,2.8993,2.9039,2.9005,2.9178,2.914,2.9204,2.9203,2.9239,2.9236,2.9395,2.9272,2.9272,2.9271,2.9271,0,2.8121,2.8216,2.829,2.836,2.8467,2.8512,2.8617,2.8666,2.8737,2.8817,2.8839,2.8914,2.897,2.9053,2.909,2.9201,2.9225,2.925,2.9259,2.9248,2.9245,2.9281,2.9274,2.9276,2.9275,2.9274,2.9273,0,2.8213,2.8266,2.839,2.8485,2.8511,2.8586,2.8667,2.8736,2.878,2.8881,2.8908,2.8978,2.9077,2.913,2.9254,2.9278,2.9404,2.9408,2.9375,2.9379,2.944,2.9433,2.9628,2.9656,2.9513,2.9515,2.9516,0,2.829,2.8363,2.8466,2.852,2.857,2.8658,2.8717,2.8765,2.8826,2.8927,2.8984,2.9083,2.9165,2.9322,2.9385,2.948,2.9487,2.9549,2.9501,2.9488,2.9488,2.9483,2.949,2.9556,2.9558,2.9559,2.956,0,2.8421,2.8444,2.8528,2.8622,2.8692,2.8769,2.8845,2.8889,2.8949,2.9016,2.9117,2.9181,2.9307,2.9406,2.9506,2.9557,2.9569,2.9574,2.9594,2.9584,2.9562,2.9574,2.9398,2.9569,2.9568,2.9568,2.9567,2.9567,2.8508,2.8574,2.8656,2.875,2.8812,2.8882,2.8952,2.9005,2.909,2.9196,2.9219,2.9326,2.9408,2.9544,2.9597,2.9682,2.967,2.9698,2.9706,2.9712,2.9714,2.9548,2.97,2.97,2.97,2.97,2.97,0,2.864,2.8694,2.878,2.8885,2.8959,2.8963,2.9047,2.9109,2.9202,2.9278,2.9358,2.9475,2.9571,2.9642,2.974,2.9794,2.9802,2.9819,2.9815,2.9827,2.9719,2.9692,2.981,2.981,2.981,2.981,2.981,2.981,2.8717,2.883,2.8863,2.9006,2.906,2.9164,2.9212,2.9277,2.9338,2.9467,2.9547,2.9592,2.9666,2.977,2.9859,2.9877,2.9913,2.9928,2.9947,2.9846,2.9834,2.9823,2.9798,2.9936,2.9936,3.0047,3.0048,3.0049]},{"header":{"parameterUnit":"m.s-1","parameterCategory":1,"la1":30.2991,"la2":30.254,"lo1":-89.0895,"lo2":-89.0444,"dy":0.0017,"dx":0.0017,"nx":28,"ny":28,"refTime":"2024-09-29T21:00:00:Z","depth":0,"parameterNumber":3,"parameterNumberName":"V-component_of_WINDS"},"data":[0,0,0,0,0,0,0,0,0,0,0,0,0,0,0,0,0,0,0,0,0,0,0,0,0,0,0,0,0,0,0,0,0,0,0,0,0,0,0,0,0,0,0,0,0,0,0,0,0,0,0,0,0,0,0,0,0,0,1.3188,1.3189,0,1.3252,1.3253,1.3253,1.3233,1.3232,1.3231,1.3229,1.3298,1.3301,1.3304,0,0,0,0,0,0,0,0,0,0,0,0,0,1.3051,1.3053,1.3188,1.3189,1.3189,1.3252,1.3253,1.3254,1.3234,1.3232,1.323,1.3229,1.3297,1.33,1.3304,0,0,0,0,0,0,0,0,0,0,0,0,0,1.3112,1.3054,1.3188,1.3187,1.3188,1.3252,1.3253,1.3254,1.3234,1.3232,1.323,1.3228,1.3295,1.33,1.3304,1.3374,0,0,1.3318,1.332,0,0,0,0,0,0,0,0,1.3109,1.3117,1.3186,1.3187,1.3188,1.3233,1.3229,1.3294,1.3235,1.3217,1.3229,1.3227,1.3278,1.3284,1.33,1.3377,1.338,1.3319,1.3322,1.3324,1.3325,0,0,0,0,0,0,0,1.3104,1.3114,1.3213,1.3187,1.3188,1.3184,1.3191,1.3241,1.3258,1.3218,1.3217,1.3224,1.3278,1.3296,1.3302,1.3381,1.3319,1.3323,1.3326,1.3328,1.3518,1.352,0,0,0,0,0,0,1.3099,1.3111,1.3211,1.3215,1.3142,1.3188,1.3196,1.322,1.3257,1.3261,1.3226,1.3223,1.3289,1.3296,1.3304,1.3388,1.3324,1.3328,1.3331,1.3516,1.3519,1.3521,0,0,0,0,0,0,1.3096,1.3108,1.3209,1.3163,1.3175,1.3193,1.3221,1.3223,1.3241,1.3263,1.3266,1.3241,1.3288,1.3298,1.3356,1.339,1.333,1.3334,1.3513,1.3517,1.352,1.3557,0,0,0,0,0,0,1.3093,1.3108,1.3134,1.3163,1.3178,1.326,1.3223,1.3225,1.3248,1.3245,1.3278,1.3282,1.3287,1.335,1.3361,1.3395,1.3338,1.351,1.3515,1.3519,1.3552,1.3561,1.3568,0,0,0,0,0,1.3088,1.3142,1.3135,1.3147,1.321,1.3261,1.327,1.3273,1.3251,1.3278,1.3292,1.3281,1.3384,1.3356,1.3369,1.3405,1.3508,1.3513,1.3518,1.3549,1.3559,1.3568,0,0,0,0,0,0,1.3117,1.3146,1.3139,1.3204,1.323,1.3258,1.3292,1.3284,1.3318,1.3314,1.3317,1.3325,1.3386,1.3401,1.3369,1.3474,1.3443,1.3451,1.3462,1.3472,1.348,1.3475,1.3342,0,0,0,0,0,1.313,1.3168,1.3192,1.3248,1.3261,1.3274,1.3297,1.3297,1.3325,1.3336,1.3355,1.3383,1.3422,1.3448,1.3485,1.3554,1.3562,1.3585,1.3593,1.3599,1.3607,1.3645,1.3656,1.3538,1.3538,1.3538,0,0,1.316,1.318,1.3204,1.3254,1.3274,1.3315,1.3284,1.3328,1.3358,1.3343,1.34,1.3415,1.3446,1.3511,1.354,1.3526,1.3641,1.3606,1.3611,1.3615,1.3652,1.3663,1.3673,1.3541,1.3541,1.354,0,0,1.3233,1.3252,1.3301,1.3322,1.3353,1.3361,1.3373,1.3402,1.3411,1.3468,1.3457,1.3494,1.356,1.3583,1.3604,1.3686,1.3677,1.3698,1.3739,1.3777,1.3786,1.3794,1.3824,1.3835,1.3705,1.3705,1.3705,0,1.3266,1.3326,1.3327,1.3372,1.3394,1.3381,1.3431,1.3451,1.3493,1.351,1.3492,1.3575,1.3596,1.3666,1.3686,1.3703,1.3717,1.3695,1.3784,1.3793,1.38,1.3829,1.384,1.3707,1.3707,1.3707,1.3707,0,1.3365,1.3406,1.3441,1.3481,1.3508,1.3555,1.3564,1.359,1.3588,1.3599,1.3657,1.3681,1.3722,1.3739,1.3738,1.3809,1.3799,1.3783,1.3752,1.3814,1.3841,1.3852,1.3711,1.371,1.3709,1.3709,0,0,1.3459,1.3499,1.3512,1.353,1.3563,1.3596,1.3642,1.3682,1.3705,1.3734,1.3774,1.383,1.3816,1.3839,1.384,1.3873,1.3937,1.3853,1.3854,1.3869,1.4018,1.4031,1.4044,1.3931,1.3933,1.3935,1.4016,0,1.3537,1.3617,1.362,1.3694,1.3733,1.3721,1.3762,1.3787,1.3798,1.3833,1.3845,1.3885,1.3862,1.3876,1.3908,1.3923,1.3968,1.3917,1.3969,1.3971,1.3963,1.4058,1.4071,1.4147,1.4027,1.4028,1.403,0,1.3638,1.3669,1.3747,1.3775,1.3791,1.3828,1.3865,1.3898,1.3926,1.3932,1.3958,1.3954,1.4002,1.3969,1.4036,1.4001,1.4023,1.4033,1.4036,1.4042,1.4005,1.4067,1.4171,1.4183,1.4046,1.4045,1.4044,0,1.37,1.3762,1.3817,1.3833,1.3866,1.3892,1.3907,1.3934,1.3958,1.399,1.4006,1.4043,1.4065,1.4094,1.4101,1.4076,1.4169,1.4136,1.4176,1.4175,1.4196,1.4195,1.4306,1.4209,1.4208,1.4208,1.4208,0,1.3787,1.3835,1.3845,1.3879,1.3933,1.3936,1.3989,1.4003,1.4026,1.4063,1.4055,1.409,1.4097,1.4133,1.4139,1.4194,1.4204,1.421,1.4211,1.4212,1.4211,1.4226,1.4222,1.4211,1.4211,1.421,1.4209,0,1.3866,1.3875,1.3934,1.396,1.3968,1.4007,1.403,1.4063,1.4072,1.4119,1.413,1.4145,1.4188,1.4197,1.4248,1.4252,1.4318,1.4313,1.4308,1.4308,1.4348,1.4344,1.4473,1.4491,1.4381,1.4382,1.4383,0,1.3921,1.3958,1.3988,1.4012,1.4028,1.4066,1.4091,1.4094,1.412,1.4155,1.4184,1.4225,1.4259,1.4328,1.4344,1.4383,1.438,1.4422,1.4386,1.4385,1.4382,1.438,1.4384,1.443,1.4431,1.4432,1.4433,0,1.4019,1.4021,1.4055,1.4092,1.4121,1.415,1.4177,1.4197,1.4205,1.4234,1.4277,1.4303,1.4354,1.4396,1.4435,1.4451,1.4444,1.4444,1.4455,1.4456,1.4452,1.4456,1.4328,1.4441,1.444,1.444,1.4439,1.4439,1.4088,1.412,1.4147,1.4186,1.4207,1.4232,1.4265,1.4278,1.4313,1.4355,1.4355,1.4403,1.443,1.4482,1.45,1.4538,1.4525,1.4541,1.4546,1.455,1.4554,1.4445,1.4545,1.4545,1.4544,1.4544,1.4544,0,1.4186,1.4202,1.4238,1.4276,1.4307,1.4296,1.4326,1.4352,1.4394,1.442,1.4453,1.4502,1.4543,1.4562,1.4602,1.4628,1.4626,1.4639,1.4637,1.4642,1.4563,1.4549,1.464,1.464,1.464,1.464,1.464,1.464,1.424,1.4295,1.43,1.4365,1.4381,1.4426,1.4445,1.4469,1.449,1.4545,1.4578,1.459,1.4614,1.4655,1.4692,1.4696,1.4712,1.4727,1.473,1.4657,1.4647,1.4638,1.4625,1.473,1.473,1.4806,1.4806,1.4807]}]]